Location: Unspecified
(0.0000°N, 0.0000°E)
Time: 22:54:54
(UTC+00:00)

N. Korean satellite - Pass Details

Date: 20 July 2017
Orbit: 460 x 514 km, 97.2° (Epoch: 20 November)

Event Time Altitude Azimuth Distance (km) Brightness Sun altitude
Rises 18:52:10 0° 181° (S) 2,550 10.0 -10.7°
Reaches altitude 10° 18:54:20 10° 188° (S) 1,657 9.1 -11.2°
Maximum altitude 18:57:41 40° 259° (W) 714 7.9 -12.0°
Drops below altitude 10° 19:00:58 10° 330° (NNW) 1,621 10.0 -12.8°
Sets 19:03:04 0° 337° (NNW) 2,487 10.9 -13.2°
